TimeCET,TemperatureF,Dew PointF,Humidity,Sea Level PressureIn,VisibilityMPH,Wind Direction,Wind SpeedMPH,Gust SpeedMPH,PrecipitationIn,Events,Conditions,WindDirDegrees,DateUTC
12:15 AM,53.6,50.0,88,29.56,5.6,WSW,9.2,-,N/A,Rain,Light Rain,240,2013-03-10 23:15:00
12:45 AM,53.6,50.0,88,29.56,5.6,WSW,5.8,-,N/A,,Partly Cloudy,240,2013-03-10 23:45:00
1:15 AM,51.8,50.0,94,29.56,5.6,SW,4.6,-,N/A,,Partly Cloudy,230,2013-03-11 00:15:00
1:45 AM,51.8,48.2,88,29.59,6.2,South,2.3,-,N/A,,Partly Cloudy,190,2013-03-11 00:45:00
2:15 AM,50.0,48.2,94,29.56,6.2,SSW,3.5,-,N/A,,Scattered Clouds,200,2013-03-11 01:15:00
2:45 AM,50.0,48.2,94,29.56,6.2,South,1.2,-,N/A,,Scattered Clouds,190,2013-03-11 01:45:00
3:15 AM,48.2,46.4,93,29.56,6.2,SSE,3.5,-,N/A,,Scattered Clouds,160,2013-03-11 02:15:00
3:45 AM,50.0,46.4,87,29.56,6.2,South,2.3,-,N/A,,Scattered Clouds,170,2013-03-11 02:45:00
4:15 AM,50.0,48.2,94,29.56,6.2,South,3.5,-,N/A,Rain,Light Rain,170,2013-03-11 03:15:00
4:45 AM,50.0,48.2,94,29.56,5.0,South,2.3,-,N/A,Rain,Light Rain,170,2013-03-11 03:45:00
5:15 AM,50.0,48.2,94,29.56,5.0,South,3.5,-,N/A,Rain,Light Rain,190,2013-03-11 04:15:00
5:45 AM,51.8,48.2,88,29.56,5.0,South,3.5,-,N/A,,Scattered Clouds,170,2013-03-11 04:45:00
6:15 AM,51.8,50.0,94,29.56,5.0,South,4.6,-,N/A,Rain,Light Rain,180,2013-03-11 05:15:00
6:45 AM,51.8,50.0,94,29.56,5.0,South,5.8,-,N/A,Rain,Light Rain,170,2013-03-11 05:45:00
7:15 AM,51.8,50.0,94,29.56,5.0,South,5.8,-,N/A,,Scattered Clouds,190,2013-03-11 06:15:00
7:45 AM,51.8,50.0,94,29.56,6.2,South,4.6,-,N/A,,Partly Cloudy,180,2013-03-11 06:45:00
8:15 AM,51.8,50.0,94,29.56,6.2,South,4.6,-,N/A,,Partly Cloudy,170,2013-03-11 07:15:00
8:45 AM,51.8,50.0,94,29.56,6.2,South,4.6,-,N/A,,Scattered Clouds,180,2013-03-11 07:45:00
9:15 AM,53.6,50.0,88,29.56,6.2,South,4.6,-,N/A,,Scattered Clouds,190,2013-03-11 08:15:00
9:45 AM,55.4,50.0,82,29.56,6.2,SSW,6.9,-,N/A,,Scattered Clouds,210,2013-03-11 08:45:00
10:15 AM,55.4,50.0,82,29.59,6.2,SW,8.1,-,N/A,,Scattered Clouds,220,2013-03-11 09:15:00
10:45 AM,57.2,50.0,77,29.59,6.2,SSW,10.4,21.9,N/A,,Scattered Clouds,210,2013-03-11 09:45:00
11:15 AM,57.2,48.2,72,29.59,6.2,SSW,12.7,-,N/A,,Scattered Clouds,200,2013-03-11 10:15:00
11:45 AM,59.0,48.2,67,29.59,6.2,SW,11.5,-,N/A,,Scattered Clouds,220,2013-03-11 10:45:00
12:15 PM,59.0,48.2,67,29.59,6.2,SSW,12.7,-,N/A,,Scattered Clouds,210,2013-03-11 11:15:00
12:45 PM,59.0,48.2,67,29.56,6.2,SW,13.8,-,N/A,,Scattered Clouds,220,2013-03-11 11:45:00
1:15 PM,60.8,48.2,63,29.56,6.2,SSW,9.2,-,N/A,,Scattered Clouds,210,2013-03-11 12:15:00
1:45 PM,59.0,44.6,59,29.56,6.2,SW,12.7,-,N/A,,Scattered Clouds,230,2013-03-11 12:45:00
2:15 PM,59.0,50.0,72,29.53,6.2,SSW,12.7,-,N/A,,Scattered Clouds,200,2013-03-11 13:15:00
2:45 PM,59.0,50.0,72,29.53,6.2,SSW,17.3,-,N/A,,Scattered Clouds,200,2013-03-11 13:45:00
3:15 PM,59.0,50.0,72,29.53,6.2,SSW,13.8,-,N/A,,Scattered Clouds,200,2013-03-11 14:15:00
3:45 PM,59.0,48.2,67,29.53,6.2,SSW,11.5,-,N/A,,Scattered Clouds,200,2013-03-11 14:45:00
4:15 PM,57.2,50.0,77,29.53,6.2,SSW,9.2,-,N/A,,Scattered Clouds,200,2013-03-11 15:15:00
4:45 PM,57.2,50.0,77,29.53,6.2,SSW,9.2,-,N/A,,Mostly Cloudy,200,2013-03-11 15:45:00
5:15 PM,57.2,51.8,82,29.53,6.2,SSW,9.2,-,N/A,,Scattered Clouds,200,2013-03-11 16:15:00
5:45 PM,55.4,51.8,88,29.53,6.2,SSW,9.2,-,N/A,,Scattered Clouds,200,2013-03-11 16:45:00
6:15 PM,55.4,50.0,82,29.50,6.2,South,5.8,-,N/A,,Scattered Clouds,180,2013-03-11 17:15:00
6:45 PM,53.6,50.0,88,29.50,6.2,South,5.8,-,N/A,,Scattered Clouds,190,2013-03-11 17:45:00
7:15 PM,53.6,50.0,88,29.50,6.2,South,5.8,-,N/A,Rain,Light Rain,190,2013-03-11 18:15:00
7:45 PM,53.6,50.0,88,29.53,6.2,South,4.6,-,N/A,Rain,Light Rain,190,2013-03-11 18:45:00
8:15 PM,53.6,50.0,88,29.53,6.2,South,3.5,-,N/A,,Mostly Cloudy,190,2013-03-11 19:15:00
8:45 PM,51.8,46.4,82,29.53,6.2,SW,3.5,-,N/A,,Mostly Cloudy,220,2013-03-11 19:45:00
9:15 PM,51.8,48.2,88,29.53,6.2,South,5.8,-,N/A,Rain,Light Rain,180,2013-03-11 20:15:00
9:45 PM,51.8,48.2,88,29.56,6.2,South,3.5,-,N/A,Rain,Light Rain,190,2013-03-11 20:45:00
10:15 PM,51.8,50.0,94,29.56,6.2,South,4.6,-,N/A,,Mostly Cloudy,190,2013-03-11 21:15:00
10:45 PM,50.0,46.4,87,29.56,6.2,West,8.1,26.5,N/A,,Mostly Cloudy,280,2013-03-11 21:45:00
11:15 PM,48.2,44.6,87,29.56,3.7,North,10.4,-,N/A,Rain-Thunderstorm,Light Thunderstorms and Rain,10,2013-03-11 22:15:00
11:45 PM,44.6,41.0,87,29.59,5.0,South,10.4,-,N/A,Rain-Thunderstorm,Light Thunderstorms and Rain,180,2013-03-11 22:45:00